owner,sensor,date,latitude,longitude,air_temperature,qcFlag 
ADCP,ioos:station:wmo:42364:1,2013-06-01T00:30:00Z,29.0600,-88.0900,24.4,11111222 
ADCP,ioos:station:wmo:42364:1,2013-06-01T01:30:00Z,29.0600,-88.0900,24.4,11111222 
ADCP,ioos:station:wmo:42364:1,2013-06-01T05:30:00Z,29.0600,-88.0900,24.4,11111222 
ADCP,ioos:station:wmo:42364:1,2013-06-01T07:30:00Z,29.0600,-88.0900,24.4,11111222 
ADCP,ioos:station:wmo:42364:1,2013-06-01T10:30:00Z,29.0600,-88.0900,24.4,11111222 
ADCP,ioos:station:wmo:42364:1,2013-06-01T13:30:00Z,29.0600,-88.0900,25.0,11111222 
ADCP,ioos:station:wmo:42364:1,2013-06-01T16:30:00Z,29.0600,-88.0900,25.0,11111222 
ADCP,ioos:station:wmo:42364:1,2013-06-01T18:30:00Z,29.0600,-88.0900,25.0,11111222 
ADCP,ioos:station:wmo:42364:1,2013-06-01T19:30:00Z,29.0600,-88.0900,25.6,11111222 
ADCP,ioos:station:wmo:42364:1,2013-06-01T20:30:00Z,29.0600,-88.0900,25.6,11111222 
ADCP,ioos:station:wmo:42364:1,2013-06-01T21:30:00Z,29.0600,-88.0900,25.6,11111222 
ADCP,ioos:station:wmo:42364:1,2013-06-02T00:30:00Z,29.0600,-88.0900,25.0,11111222 
ADCP,ioos:station:wmo:42364:1,2013-06-02T03:30:00Z,29.0600,-88.0900,25.0,11111222 
ADCP,ioos:station:wmo:42364:1,2013-06-02T06:30:00Z,29.0600,-88.0900,25.0,11111222 
ADCP,ioos:station:wmo:42364:1,2013-06-02T07:30:00Z,29.0600,-88.0900,25.0,11111222 
ADCP,ioos:station:wmo:42364:1,2013-06-02T08:30:00Z,29.0600,-88.0900,24.4,11111222 
ADCP,ioos:station:wmo:42364:1,2013-06-02T10:30:00Z,29.0600,-88.0900,24.4,11111222 
ADCP,ioos:station:wmo:42364:1,2013-06-02T12:30:00Z,29.0600,-88.0900,25.0,11111222 
ADCP,ioos:station:wmo:42364:1,2013-06-02T14:30:00Z,29.0600,-88.0900,25.0,11111222 
ADCP,ioos:station:wmo:42364:1,2013-06-02T15:30:00Z,29.0600,-88.0900,25.6,11111222 
ADCP,ioos:station:wmo:42364:1,2013-06-02T16:30:00Z,29.0600,-88.0900,26.1,11111222 
ADCP,ioos:station:wmo:42364:1,2013-06-02T17:30:00Z,29.0600,-88.0900,26.7,11111222 
ADCP,ioos:station:wmo:42364:1,2013-06-02T20:30:00Z,29.0600,-88.0900,25.6,11111222 
ADCP,ioos:station:wmo:42364:1,2013-06-02T21:30:00Z,29.0600,-88.0900,25.6,11111222 
ADCP,ioos:station:wmo:42364:1,2013-06-02T22:30:00Z,29.0600,-88.0900,25.6,11111222 
ADCP,ioos:station:wmo:42364:1,2013-06-02T23:30:00Z,29.0600,-88.0900,25.6,11111222 
ADCP,ioos:station:wmo:42364:1,2013-06-03T04:30:00Z,29.0600,-88.0900,25.6,11111222 
ADCP,ioos:station:wmo:42364:1,2013-06-03T06:30:00Z,29.0600,-88.0900,25.0,11111222 
ADCP,ioos:station:wmo:42364:1,2013-06-03T07:30:00Z,29.0600,-88.0900,25.0,11111222 
ADCP,ioos:station:wmo:42364:1,2013-06-03T08:30:00Z,29.0600,-88.0900,25.0,11111222 
ADCP,ioos:station:wmo:42364:1,2013-06-03T09:30:00Z,29.0600,-88.0900,25.0,11111222 
ADCP,ioos:station:wmo:42364:1,2013-06-03T10:30:00Z,29.0600,-88.0900,25.0,11111222 
ADCP,ioos:station:wmo:42364:1,2013-06-03T11:30:00Z,29.0600,-88.0900,25.0,11111222 
ADCP,ioos:station:wmo:42364:1,2013-06-03T14:30:00Z,29.0600,-88.0900,25.6,11111222 
ADCP,ioos:station:wmo:42364:1,2013-06-03T15:30:00Z,29.0600,-88.0900,26.1,11111222 
ADCP,ioos:station:wmo:42364:1,2013-06-03T19:30:00Z,29.0600,-88.0900,27.8,11111222 
ADCP,ioos:station:wmo:42364:1,2013-06-03T20:30:00Z,29.0600,-88.0900,27.8,11111222 
ADCP,ioos:station:wmo:42364:1,2013-06-04T00:30:00Z,29.0600,-88.0900,26.1,11111222 
ADCP,ioos:station:wmo:42364:1,2013-06-04T02:30:00Z,29.0600,-88.0900,26.1,11111222 
ADCP,ioos:station:wmo:42364:1,2013-06-04T03:30:00Z,29.0600,-88.0900,26.1,11111222 
ADCP,ioos:station:wmo:42364:1,2013-06-04T07:30:00Z,29.0600,-88.0900,25.0,11111222 
ADCP,ioos:station:wmo:42364:1,2013-06-04T08:30:00Z,29.0600,-88.0900,25.0,11111222 
ADCP,ioos:station:wmo:42364:1,2013-06-04T09:30:00Z,29.0600,-88.0900,25.0,11111222 
ADCP,ioos:station:wmo:42364:1,2013-06-04T10:30:00Z,29.0600,-88.0900,25.0,11111222 
ADCP,ioos:station:wmo:42364:1,2013-06-04T11:30:00Z,29.0600,-88.0900,25.0,11111222 
ADCP,ioos:station:wmo:42364:1,2013-06-04T12:30:00Z,29.0600,-88.0900,25.0,11111222 
ADCP,ioos:station:wmo:42364:1,2013-06-04T14:30:00Z,29.0600,-88.0900,26.1,11111222 
ADCP,ioos:station:wmo:42364:1,2013-06-04T15:30:00Z,29.0600,-88.0900,27.2,11111222 
ADCP,ioos:station:wmo:42364:1,2013-06-04T16:30:00Z,29.0600,-88.0900,26.1,11111222 
ADCP,ioos:station:wmo:42364:1,2013-06-04T17:30:00Z,29.0600,-88.0900,26.7,11111222 
ADCP,ioos:station:wmo:42364:1,2013-06-04T19:30:00Z,29.0600,-88.0900,25.6,11111222 
ADCP,ioos:station:wmo:42364:1,2013-06-04T20:30:00Z,29.0600,-88.0900,25.6,11111222 
ADCP,ioos:station:wmo:42364:1,2013-06-04T21:30:00Z,29.0600,-88.0900,26.1,11111222 
ADCP,ioos:station:wmo:42364:1,2013-06-04T22:30:00Z,29.0600,-88.0900,25.6,11111222 
ADCP,ioos:station:wmo:42364:1,2013-06-04T23:30:00Z,29.0600,-88.0900,25.6,11111222 
ADCP,ioos:station:wmo:42364:1,2013-06-05T01:30:00Z,29.0600,-88.0900,25.6,11111222 
ADCP,ioos:station:wmo:42364:1,2013-06-05T02:30:00Z,29.0600,-88.0900,25.0,11111222 
ADCP,ioos:station:wmo:42364:1,2013-06-05T03:30:00Z,29.0600,-88.0900,25.0,11111222 
ADCP,ioos:station:wmo:42364:1,2013-06-05T04:30:00Z,29.0600,-88.0900,25.0,11111222 
ADCP,ioos:station:wmo:42364:1,2013-06-05T05:30:00Z,29.0600,-88.0900,25.6,11111222 
ADCP,ioos:station:wmo:42364:1,2013-06-05T08:30:00Z,29.0600,-88.0900,25.0,11111222 
ADCP,ioos:station:wmo:42364:1,2013-06-05T10:30:00Z,29.0600,-88.0900,24.4,11111222 
ADCP,ioos:station:wmo:42364:1,2013-06-05T12:30:00Z,29.0600,-88.0900,23.9,11111222 
ADCP,ioos:station:wmo:42364:1,2013-06-05T13:30:00Z,29.0600,-88.0900,24.4,11111222 
ADCP,ioos:station:wmo:42364:1,2013-06-05T14:30:00Z,29.0600,-88.0900,25.6,11111222 
ADCP,ioos:station:wmo:42364:1,2013-06-05T15:30:00Z,29.0600,-88.0900,25.0,11111222 
ADCP,ioos:station:wmo:42364:1,2013-06-05T16:30:00Z,29.0600,-88.0900,25.6,11111222 
ADCP,ioos:station:wmo:42364:1,2013-06-05T17:30:00Z,29.0600,-88.0900,25.6,11111222 
ADCP,ioos:station:wmo:42364:1,2013-06-05T18:30:00Z,29.0600,-88.0900,26.1,11111222 
ADCP,ioos:station:wmo:42364:1,2013-06-05T19:30:00Z,29.0600,-88.0900,26.1,11111222 
ADCP,ioos:station:wmo:42364:1,2013-06-05T20:30:00Z,29.0600,-88.0900,25.6,11111222 
ADCP,ioos:station:wmo:42364:1,2013-06-05T21:30:00Z,29.0600,-88.0900,25.6,11111222 
ADCP,ioos:station:wmo:42364:1,2013-06-05T22:30:00Z,29.0600,-88.0900,25.6,11111222 
ADCP,ioos:station:wmo:42364:1,2013-06-05T23:30:00Z,29.0600,-88.0900,25.6,11111222 
ADCP,ioos:station:wmo:42364:1,2013-06-06T00:30:00Z,29.0600,-88.0900,25.6,11111222 
ADCP,ioos:station:wmo:42364:1,2013-06-06T01:30:00Z,29.0600,-88.0900,25.6,11111222 
ADCP,ioos:station:wmo:42364:1,2013-06-06T02:30:00Z,29.0600,-88.0900,25.0,11111222 
ADCP,ioos:station:wmo:42364:1,2013-06-06T03:30:00Z,29.0600,-88.0900,25.0,11111222 
ADCP,ioos:station:wmo:42364:1,2013-06-06T04:30:00Z,29.0600,-88.0900,25.6,11111222 
ADCP,ioos:station:wmo:42364:1,2013-06-06T05:30:00Z,29.0600,-88.0900,26.1,11111222 
ADCP,ioos:station:wmo:42364:1,2013-06-06T08:30:00Z,29.0600,-88.0900,25.6,11111222 
ADCP,ioos:station:wmo:42364:1,2013-06-06T09:30:00Z,29.0600,-88.0900,25.6,11111222 
ADCP,ioos:station:wmo:42364:1,2013-06-06T10:30:00Z,29.0600,-88.0900,25.0,11111222 
ADCP,ioos:station:wmo:42364:1,2013-06-06T11:30:00Z,29.0600,-88.0900,25.0,11111222 
ADCP,ioos:station:wmo:42364:1,2013-06-06T12:30:00Z,29.0600,-88.0900,25.6,11111222 
ADCP,ioos:station:wmo:42364:1,2013-06-06T13:30:00Z,29.0600,-88.0900,26.1,11111222 
ADCP,ioos:station:wmo:42364:1,2013-06-06T15:30:00Z,29.0600,-88.0900,25.6,11111222 
ADCP,ioos:station:wmo:42364:1,2013-06-06T16:30:00Z,29.0600,-88.0900,26.1,11111222 
ADCP,ioos:station:wmo:42364:1,2013-06-06T17:30:00Z,29.0600,-88.0900,25.6,11111222 
ADCP,ioos:station:wmo:42364:1,2013-06-06T18:30:00Z,29.0600,-88.0900,25.6,11111222 
ADCP,ioos:station:wmo:42364:1,2013-06-06T20:30:00Z,29.0600,-88.0900,25.6,11111222 
ADCP,ioos:station:wmo:42364:1,2013-06-06T21:30:00Z,29.0600,-88.0900,26.1,11111222 
ADCP,ioos:station:wmo:42364:1,2013-06-06T22:30:00Z,29.0600,-88.0900,26.1,11111222 
ADCP,ioos:station:wmo:42364:1,2013-06-06T23:30:00Z,29.0600,-88.0900,26.1,11111222 
ADCP,ioos:station:wmo:42364:1,2013-06-07T00:30:00Z,29.0600,-88.0900,26.1,11111222 
ADCP,ioos:station:wmo:42364:1,2013-06-07T01:30:00Z,29.0600,-88.0900,26.7,11111222 
ADCP,ioos:station:wmo:42364:1,2013-06-07T03:30:00Z,29.0600,-88.0900,25.6,11111222 
ADCP,ioos:station:wmo:42364:1,2013-06-07T04:30:00Z,29.0600,-88.0900,25.6,11111222 
ADCP,ioos:station:wmo:42364:1,2013-06-07T05:30:00Z,29.0600,-88.0900,25.6,11111222 
ADCP,ioos:station:wmo:42364:1,2013-06-07T06:30:00Z,29.0600,-88.0900,25.6,11111222 
ADCP,ioos:station:wmo:42364:1,2013-06-07T07:30:00Z,29.0600,-88.0900,25.6,11111222 
ADCP,ioos:station:wmo:42364:1,2013-06-07T08:30:00Z,29.0600,-88.0900,25.6,11111222 
ADCP,ioos:station:wmo:42364:1,2013-06-07T09:30:00Z,29.0600,-88.0900,25.6,11111222 
ADCP,ioos:station:wmo:42364:1,2013-06-07T10:30:00Z,29.0600,-88.0900,25.6,11111222 
ADCP,ioos:station:wmo:42364:1,2013-06-07T11:30:00Z,29.0600,-88.0900,25.6,11111222 
ADCP,ioos:station:wmo:42364:1,2013-06-07T12:30:00Z,29.0600,-88.0900,25.6,11111222 
ADCP,ioos:station:wmo:42364:1,2013-06-07T13:30:00Z,29.0600,-88.0900,25.6,11111222 
ADCP,ioos:station:wmo:42364:1,2013-06-07T14:30:00Z,29.0600,-88.0900,26.1,11111222 
ADCP,ioos:station:wmo:42364:1,2013-06-07T16:30:00Z,29.0600,-88.0900,26.1,11111222 
ADCP,ioos:station:wmo:42364:1,2013-06-07T17:30:00Z,29.0600,-88.0900,26.7,11111222 
ADCP,ioos:station:wmo:42364:1,2013-06-07T18:30:00Z,29.0600,-88.0900,26.7,11111222 
ADCP,ioos:station:wmo:42364:1,2013-06-07T19:30:00Z,29.0600,-88.0900,26.1,11111222 
ADCP,ioos:station:wmo:42364:1,2013-06-07T20:30:00Z,29.0600,-88.0900,26.7,11111222 
ADCP,ioos:station:wmo:42364:1,2013-06-07T22:30:00Z,29.0600,-88.0900,26.7,11111222 
ADCP,ioos:station:wmo:42364:1,2013-06-08T00:30:00Z,29.0600,-88.0900,26.1,11111222 
ADCP,ioos:station:wmo:42364:1,2013-06-08T01:30:00Z,29.0600,-88.0900,26.1,11111222 
ADCP,ioos:station:wmo:42364:1,2013-06-08T02:30:00Z,29.0600,-88.0900,26.1,11111222 
ADCP,ioos:station:wmo:42364:1,2013-06-08T03:30:00Z,29.0600,-88.0900,26.1,11111222 
ADCP,ioos:station:wmo:42364:1,2013-06-08T04:30:00Z,29.0600,-88.0900,26.1,11111222 
ADCP,ioos:station:wmo:42364:1,2013-06-08T05:30:00Z,29.0600,-88.0900,25.6,11111222 
ADCP,ioos:station:wmo:42364:1,2013-06-08T06:30:00Z,29.0600,-88.0900,25.6,11111222 
ADCP,ioos:station:wmo:42364:1,2013-06-08T07:30:00Z,29.0600,-88.0900,25.6,11111222 
ADCP,ioos:station:wmo:42364:1,2013-06-08T08:30:00Z,29.0600,-88.0900,25.6,11111222 
ADCP,ioos:station:wmo:42364:1,2013-06-08T09:30:00Z,29.0600,-88.0900,25.6,11111222 
ADCP,ioos:station:wmo:42364:1,2013-06-08T10:30:00Z,29.0600,-88.0900,25.6,11111222 
ADCP,ioos:station:wmo:42364:1,2013-06-08T11:30:00Z,29.0600,-88.0900,26.1,11111222 
ADCP,ioos:station:wmo:42364:1,2013-06-08T12:30:00Z,29.0600,-88.0900,25.6,11111222 
ADCP,ioos:station:wmo:42364:1,2013-06-08T13:30:00Z,29.0600,-88.0900,25.6,11111222 
ADCP,ioos:station:wmo:42364:1,2013-06-08T14:30:00Z,29.0600,-88.0900,26.1,11111222 
ADCP,ioos:station:wmo:42364:1,2013-06-08T15:30:00Z,29.0600,-88.0900,26.1,11111222 
ADCP,ioos:station:wmo:42364:1,2013-06-08T16:30:00Z,29.0600,-88.0900,26.1,11111222 
ADCP,ioos:station:wmo:42364:1,2013-06-08T17:30:00Z,29.0600,-88.0900,26.1,11111222 
ADCP,ioos:station:wmo:42364:1,2013-06-08T18:30:00Z,29.0600,-88.0900,26.1,11111222 
ADCP,ioos:station:wmo:42364:1,2013-06-08T19:30:00Z,29.0600,-88.0900,26.1,11111222 
ADCP,ioos:station:wmo:42364:1,2013-06-08T20:30:00Z,29.0600,-88.0900,26.1,11111222 
ADCP,ioos:station:wmo:42364:1,2013-06-08T21:30:00Z,29.0600,-88.0900,26.1,11111222 
ADCP,ioos:station:wmo:42364:1,2013-06-08T22:30:00Z,29.0600,-88.0900,26.1,11111222 
ADCP,ioos:station:wmo:42364:1,2013-06-08T23:30:00Z,29.0600,-88.0900,26.1,11111222 
ADCP,ioos:station:wmo:42364:1,2013-06-09T00:30:00Z,29.0600,-88.0900,26.1,11111222 
ADCP,ioos:station:wmo:42364:1,2013-06-09T01:30:00Z,29.0600,-88.0900,26.1,11111222 
ADCP,ioos:station:wmo:42364:1,2013-06-09T02:30:00Z,29.0600,-88.0900,26.1,11111222 
ADCP,ioos:station:wmo:42364:1,2013-06-09T03:30:00Z,29.0600,-88.0900,25.6,11111222 
ADCP,ioos:station:wmo:42364:1,2013-06-09T04:30:00Z,29.0600,-88.0900,25.6,11111222 
ADCP,ioos:station:wmo:42364:1,2013-06-09T05:30:00Z,29.0600,-88.0900,25.6,11111222 
ADCP,ioos:station:wmo:42364:1,2013-06-09T06:30:00Z,29.0600,-88.0900,25.6,11111222 
ADCP,ioos:station:wmo:42364:1,2013-06-09T07:30:00Z,29.0600,-88.0900,25.6,11111222 
ADCP,ioos:station:wmo:42364:1,2013-06-09T08:30:00Z,29.0600,-88.0900,26.1,11111222 
ADCP,ioos:station:wmo:42364:1,2013-06-09T09:30:00Z,29.0600,-88.0900,25.6,11111222 
ADCP,ioos:station:wmo:42364:1,2013-06-09T10:30:00Z,29.0600,-88.0900,26.1,11111222 
ADCP,ioos:station:wmo:42364:1,2013-06-09T12:30:00Z,29.0600,-88.0900,25.6,11111222 
ADCP,ioos:station:wmo:42364:1,2013-06-09T14:30:00Z,29.0600,-88.0900,22.2,11111222 
ADCP,ioos:station:wmo:42364:1,2013-06-09T15:30:00Z,29.0600,-88.0900,23.3,11111222 
ADCP,ioos:station:wmo:42364:1,2013-06-09T17:30:00Z,29.0600,-88.0900,26.1,11111222 
ADCP,ioos:station:wmo:42364:1,2013-06-09T18:30:00Z,29.0600,-88.0900,25.0,11111222 
ADCP,ioos:station:wmo:42364:1,2013-06-09T20:30:00Z,29.0600,-88.0900,23.9,11111222 
ADCP,ioos:station:wmo:42364:1,2013-06-09T21:30:00Z,29.0600,-88.0900,22.8,11111222 
ADCP,ioos:station:wmo:42364:1,2013-06-09T23:30:00Z,29.0600,-88.0900,22.8,11111222 
ADCP,ioos:station:wmo:42364:1,2013-06-10T00:30:00Z,29.0600,-88.0900,24.4,11111222 
ADCP,ioos:station:wmo:42364:1,2013-06-10T01:30:00Z,29.0600,-88.0900,25.0,11111222 
ADCP,ioos:station:wmo:42364:1,2013-06-10T02:30:00Z,29.0600,-88.0900,24.4,11111222 
ADCP,ioos:station:wmo:42364:1,2013-06-10T03:30:00Z,29.0600,-88.0900,25.6,11111222 
ADCP,ioos:station:wmo:42364:1,2013-06-10T04:30:00Z,29.0600,-88.0900,25.0,11111222 
ADCP,ioos:station:wmo:42364:1,2013-06-10T06:30:00Z,29.0600,-88.0900,25.0,11111222 
ADCP,ioos:station:wmo:42364:1,2013-06-10T07:30:00Z,29.0600,-88.0900,25.0,11111222 
ADCP,ioos:station:wmo:42364:1,2013-06-10T08:30:00Z,29.0600,-88.0900,25.0,11111222 
ADCP,ioos:station:wmo:42364:1,2013-06-10T09:30:00Z,29.0600,-88.0900,25.0,11111222 
ADCP,ioos:station:wmo:42364:1,2013-06-10T10:30:00Z,29.0600,-88.0900,25.0,11111222 
ADCP,ioos:station:wmo:42364:1,2013-06-10T11:30:00Z,29.0600,-88.0900,25.0,11111222 
ADCP,ioos:station:wmo:42364:1,2013-06-10T12:30:00Z,29.0600,-88.0900,25.0,11111222 
ADCP,ioos:station:wmo:42364:1,2013-06-10T13:30:00Z,29.0600,-88.0900,25.0,11111222 
ADCP,ioos:station:wmo:42364:1,2013-06-10T14:30:00Z,29.0600,-88.0900,25.6,11111222 
ADCP,ioos:station:wmo:42364:1,2013-06-10T15:30:00Z,29.0600,-88.0900,25.6,11111222 
ADCP,ioos:station:wmo:42364:1,2013-06-10T16:30:00Z,29.0600,-88.0900,25.6,11111222 
ADCP,ioos:station:wmo:42364:1,2013-06-10T17:30:00Z,29.0600,-88.0900,26.1,11111222 
ADCP,ioos:station:wmo:42364:1,2013-06-10T18:30:00Z,29.0600,-88.0900,26.1,11111222 
ADCP,ioos:station:wmo:42364:1,2013-06-10T19:30:00Z,29.0600,-88.0900,26.1,11111222 
ADCP,ioos:station:wmo:42364:1,2013-06-10T21:30:00Z,29.0600,-88.0900,26.1,11111222 
ADCP,ioos:station:wmo:42364:1,2013-06-10T22:30:00Z,29.0600,-88.0900,26.1,11111222 
ADCP,ioos:station:wmo:42364:1,2013-06-10T23:30:00Z,29.0600,-88.0900,26.1,11111222 
ADCP,ioos:station:wmo:42364:1,2013-06-11T00:30:00Z,29.0600,-88.0900,26.1,11111222 
ADCP,ioos:station:wmo:42364:1,2013-06-11T01:30:00Z,29.0600,-88.0900,25.6,11111222 
ADCP,ioos:station:wmo:42364:1,2013-06-11T02:30:00Z,29.0600,-88.0900,25.6,11111222 
ADCP,ioos:station:wmo:42364:1,2013-06-11T03:30:00Z,29.0600,-88.0900,25.6,11111222 
ADCP,ioos:station:wmo:42364:1,2013-06-11T04:30:00Z,29.0600,-88.0900,25.6,11111222 
ADCP,ioos:station:wmo:42364:1,2013-06-11T05:30:00Z,29.0600,-88.0900,25.6,11111222 
ADCP,ioos:station:wmo:42364:1,2013-06-11T06:30:00Z,29.0600,-88.0900,25.6,11111222 
ADCP,ioos:station:wmo:42364:1,2013-06-11T07:30:00Z,29.0600,-88.0900,25.6,11111222 
ADCP,ioos:station:wmo:42364:1,2013-06-11T08:30:00Z,29.0600,-88.0900,25.6,11111222 
ADCP,ioos:station:wmo:42364:1,2013-06-11T09:30:00Z,29.0600,-88.0900,25.6,11111222 
ADCP,ioos:station:wmo:42364:1,2013-06-11T10:30:00Z,29.0600,-88.0900,25.6,11111222 
ADCP,ioos:station:wmo:42364:1,2013-06-11T11:30:00Z,29.0600,-88.0900,25.6,11111222 
ADCP,ioos:station:wmo:42364:1,2013-06-11T12:30:00Z,29.0600,-88.0900,25.6,11111222 
ADCP,ioos:station:wmo:42364:1,2013-06-11T13:30:00Z,29.0600,-88.0900,25.6,11111222 
ADCP,ioos:station:wmo:42364:1,2013-06-11T14:30:00Z,29.0600,-88.0900,26.1,11111222 
ADCP,ioos:station:wmo:42364:1,2013-06-11T16:30:00Z,29.0600,-88.0900,27.2,11111222 
ADCP,ioos:station:wmo:42364:1,2013-06-11T17:30:00Z,29.0600,-88.0900,28.3,11111222 
ADCP,ioos:station:wmo:42364:1,2013-06-11T18:30:00Z,29.0600,-88.0900,26.7,11111222 
ADCP,ioos:station:wmo:42364:1,2013-06-11T19:30:00Z,29.0600,-88.0900,27.2,11111222 
ADCP,ioos:station:wmo:42364:1,2013-06-11T20:30:00Z,29.0600,-88.0900,26.7,11111222 
ADCP,ioos:station:wmo:42364:1,2013-06-11T21:30:00Z,29.0600,-88.0900,26.1,11111222 
ADCP,ioos:station:wmo:42364:1,2013-06-11T22:30:00Z,29.0600,-88.0900,26.1,11111222 
ADCP,ioos:station:wmo:42364:1,2013-06-11T23:30:00Z,29.0600,-88.0900,26.1,11111222 
ADCP,ioos:station:wmo:42364:1,2013-06-12T00:30:00Z,29.0600,-88.0900,26.1,11111222 
ADCP,ioos:station:wmo:42364:1,2013-06-12T01:30:00Z,29.0600,-88.0900,26.1,11111222 
ADCP,ioos:station:wmo:42364:1,2013-06-12T02:30:00Z,29.0600,-88.0900,25.6,11111222 
ADCP,ioos:station:wmo:42364:1,2013-06-12T03:30:00Z,29.0600,-88.0900,25.6,11111222 
ADCP,ioos:station:wmo:42364:1,2013-06-12T04:30:00Z,29.0600,-88.0900,25.6,11111222 
ADCP,ioos:station:wmo:42364:1,2013-06-12T05:30:00Z,29.0600,-88.0900,25.6,11111222 
ADCP,ioos:station:wmo:42364:1,2013-06-12T06:30:00Z,29.0600,-88.0900,25.6,11111222 
ADCP,ioos:station:wmo:42364:1,2013-06-12T07:30:00Z,29.0600,-88.0900,25.0,11111222 
ADCP,ioos:station:wmo:42364:1,2013-06-12T08:30:00Z,29.0600,-88.0900,25.0,11111222 
ADCP,ioos:station:wmo:42364:1,2013-06-12T09:30:00Z,29.0600,-88.0900,25.0,11111222 
ADCP,ioos:station:wmo:42364:1,2013-06-12T10:30:00Z,29.0600,-88.0900,25.0,11111222 
ADCP,ioos:station:wmo:42364:1,2013-06-12T11:30:00Z,29.0600,-88.0900,25.6,11111222 
ADCP,ioos:station:wmo:42364:1,2013-06-12T12:30:00Z,29.0600,-88.0900,25.6,11111222 
ADCP,ioos:station:wmo:42364:1,2013-06-12T13:30:00Z,29.0600,-88.0900,26.1,11111222 
ADCP,ioos:station:wmo:42364:1,2013-06-12T14:30:00Z,29.0600,-88.0900,26.7,11111222 
ADCP,ioos:station:wmo:42364:1,2013-06-12T15:30:00Z,29.0600,-88.0900,27.2,11111222 
ADCP,ioos:station:wmo:42364:1,2013-06-12T16:30:00Z,29.0600,-88.0900,27.2,11111222 
ADCP,ioos:station:wmo:42364:1,2013-06-12T17:30:00Z,29.0600,-88.0900,27.2,11111222 
ADCP,ioos:station:wmo:42364:1,2013-06-12T18:30:00Z,29.0600,-88.0900,27.8,11111222 
ADCP,ioos:station:wmo:42364:1,2013-06-12T19:30:00Z,29.0600,-88.0900,27.8,11111222 
ADCP,ioos:station:wmo:42364:1,2013-06-12T21:30:00Z,29.0600,-88.0900,27.8,11111222 
ADCP,ioos:station:wmo:42364:1,2013-06-12T22:30:00Z,29.0600,-88.0900,27.2,11111222 
ADCP,ioos:station:wmo:42364:1,2013-06-12T23:30:00Z,29.0600,-88.0900,27.8,11111222 
ADCP,ioos:station:wmo:42364:1,2013-06-13T00:30:00Z,29.0600,-88.0900,27.2,11111222 
ADCP,ioos:station:wmo:42364:1,2013-06-13T01:30:00Z,29.0600,-88.0900,27.2,11111222 
ADCP,ioos:station:wmo:42364:1,2013-06-13T02:30:00Z,29.0600,-88.0900,27.2,11111222 
ADCP,ioos:station:wmo:42364:1,2013-06-13T03:30:00Z,29.0600,-88.0900,27.2,11111222 
ADCP,ioos:station:wmo:42364:1,2013-06-13T04:30:00Z,29.0600,-88.0900,27.2,11111222 
ADCP,ioos:station:wmo:42364:1,2013-06-13T05:30:00Z,29.0600,-88.0900,26.7,11111222 
ADCP,ioos:station:wmo:42364:1,2013-06-13T06:30:00Z,29.0600,-88.0900,26.7,11111222 
ADCP,ioos:station:wmo:42364:1,2013-06-13T07:30:00Z,29.0600,-88.0900,26.7,11111222 
ADCP,ioos:station:wmo:42364:1,2013-06-13T08:30:00Z,29.0600,-88.0900,26.7,11111222 
ADCP,ioos:station:wmo:42364:1,2013-06-13T09:30:00Z,29.0600,-88.0900,26.7,11111222 
ADCP,ioos:station:wmo:42364:1,2013-06-13T10:30:00Z,29.0600,-88.0900,26.7,11111222 
ADCP,ioos:station:wmo:42364:1,2013-06-13T11:30:00Z,29.0600,-88.0900,26.7,11111222 
ADCP,ioos:station:wmo:42364:1,2013-06-13T12:30:00Z,29.0600,-88.0900,26.7,11111222 
ADCP,ioos:station:wmo:42364:1,2013-06-13T13:30:00Z,29.0600,-88.0900,27.2,11111222 
ADCP,ioos:station:wmo:42364:1,2013-06-13T14:30:00Z,29.0600,-88.0900,27.8,11111222 
ADCP,ioos:station:wmo:42364:1,2013-06-13T15:30:00Z,29.0600,-88.0900,28.3,11111222 
ADCP,ioos:station:wmo:42364:1,2013-06-13T16:30:00Z,29.0600,-88.0900,28.9,11111222 
ADCP,ioos:station:wmo:42364:1,2013-06-13T17:30:00Z,29.0600,-88.0900,28.9,11111222 
ADCP,ioos:station:wmo:42364:1,2013-06-13T18:30:00Z,29.0600,-88.0900,28.9,11111222 
ADCP,ioos:station:wmo:42364:1,2013-06-13T19:30:00Z,29.0600,-88.0900,28.9,11111222 
ADCP,ioos:station:wmo:42364:1,2013-06-13T21:30:00Z,29.0600,-88.0900,28.9,11111222 
ADCP,ioos:station:wmo:42364:1,2013-06-13T22:30:00Z,29.0600,-88.0900,28.3,11111222 
ADCP,ioos:station:wmo:42364:1,2013-06-13T23:30:00Z,29.0600,-88.0900,28.3,11111222 
ADCP,ioos:station:wmo:42364:1,2013-06-14T00:30:00Z,29.0600,-88.0900,27.8,11111222 
ADCP,ioos:station:wmo:42364:1,2013-06-14T01:30:00Z,29.0600,-88.0900,27.8,11111222 
ADCP,ioos:station:wmo:42364:1,2013-06-14T02:30:00Z,29.0600,-88.0900,27.8,11111222 
ADCP,ioos:station:wmo:42364:1,2013-06-14T03:30:00Z,29.0600,-88.0900,27.8,11111222 
ADCP,ioos:station:wmo:42364:1,2013-06-14T05:30:00Z,29.0600,-88.0900,27.2,11111222 
ADCP,ioos:station:wmo:42364:1,2013-06-14T06:30:00Z,29.0600,-88.0900,27.2,11111222 
ADCP,ioos:station:wmo:42364:1,2013-06-14T07:30:00Z,29.0600,-88.0900,27.2,11111222 
ADCP,ioos:station:wmo:42364:1,2013-06-14T08:30:00Z,29.0600,-88.0900,26.7,11111222 
ADCP,ioos:station:wmo:42364:1,2013-06-14T10:30:00Z,29.0600,-88.0900,26.7,11111222 
ADCP,ioos:station:wmo:42364:1,2013-06-14T12:30:00Z,29.0600,-88.0900,26.7,11111222 
ADCP,ioos:station:wmo:42364:1,2013-06-14T14:30:00Z,29.0600,-88.0900,27.8,11111222 
ADCP,ioos:station:wmo:42364:1,2013-06-14T15:30:00Z,29.0600,-88.0900,28.3,11111222 
ADCP,ioos:station:wmo:42364:1,2013-06-14T17:30:00Z,29.0600,-88.0900,28.3,11111222 
ADCP,ioos:station:wmo:42364:1,2013-06-14T22:30:00Z,29.0600,-88.0900,28.9,11111222 
ADCP,ioos:station:wmo:42364:1,2013-06-14T23:30:00Z,29.0600,-88.0900,28.3,11111222 
ADCP,ioos:station:wmo:42364:1,2013-06-15T01:30:00Z,29.0600,-88.0900,27.8,11111222 
ADCP,ioos:station:wmo:42364:1,2013-06-15T03:30:00Z,29.0600,-88.0900,27.8,11111222 
ADCP,ioos:station:wmo:42364:1,2013-06-15T04:30:00Z,29.0600,-88.0900,27.8,11111222 
ADCP,ioos:station:wmo:42364:1,2013-06-15T05:30:00Z,29.0600,-88.0900,27.2,11111222 
ADCP,ioos:station:wmo:42364:1,2013-06-15T06:30:00Z,29.0600,-88.0900,27.8,11111222 
ADCP,ioos:station:wmo:42364:1,2013-06-15T07:30:00Z,29.0600,-88.0900,27.8,11111222 
ADCP,ioos:station:wmo:42364:1,2013-06-15T08:30:00Z,29.0600,-88.0900,27.8,11111222 
ADCP,ioos:station:wmo:42364:1,2013-06-15T09:30:00Z,29.0600,-88.0900,27.8,11111222 
ADCP,ioos:station:wmo:42364:1,2013-06-15T10:30:00Z,29.0600,-88.0900,27.2,11111222 
ADCP,ioos:station:wmo:42364:1,2013-06-15T11:30:00Z,29.0600,-88.0900,27.2,11111222 
ADCP,ioos:station:wmo:42364:1,2013-06-15T12:30:00Z,29.0600,-88.0900,27.8,11111222 
ADCP,ioos:station:wmo:42364:1,2013-06-15T15:30:00Z,29.0600,-88.0900,28.3,11111222 
ADCP,ioos:station:wmo:42364:1,2013-06-15T16:30:00Z,29.0600,-88.0900,27.2,11111222 
ADCP,ioos:station:wmo:42364:1,2013-06-15T17:30:00Z,29.0600,-88.0900,27.2,11111222 
ADCP,ioos:station:wmo:42364:1,2013-06-15T18:30:00Z,29.0600,-88.0900,27.2,11111222 
ADCP,ioos:station:wmo:42364:1,2013-06-15T20:30:00Z,29.0600,-88.0900,28.3,11111222 
ADCP,ioos:station:wmo:42364:1,2013-06-15T23:30:00Z,29.0600,-88.0900,27.8,11111222 
ADCP,ioos:station:wmo:42364:1,2013-06-16T00:30:00Z,29.0600,-88.0900,27.8,11111222 
ADCP,ioos:station:wmo:42364:1,2013-06-16T01:30:00Z,29.0600,-88.0900,27.8,11111222 
ADCP,ioos:station:wmo:42364:1,2013-06-16T03:30:00Z,29.0600,-88.0900,27.2,11111222 
ADCP,ioos:station:wmo:42364:1,2013-06-16T04:30:00Z,29.0600,-88.0900,27.2,11111222 
ADCP,ioos:station:wmo:42364:1,2013-06-16T05:30:00Z,29.0600,-88.0900,27.2,11111222 
ADCP,ioos:station:wmo:42364:1,2013-06-16T06:30:00Z,29.0600,-88.0900,27.2,11111222 
ADCP,ioos:station:wmo:42364:1,2013-06-16T07:30:00Z,29.0600,-88.0900,27.2,11111222 
ADCP,ioos:station:wmo:42364:1,2013-06-16T10:30:00Z,29.0600,-88.0900,27.2,11111222 